When you browse on this site, cookies collect data to enhance your experience and personalize the content and advertising you see.
Visit our Privacy Policy to learn more. By continuing to use the site, you agree to this use of cookies and data.
  • In Hungary
  • List of Countries
  • For 7 days
  • Water Temperature
  • Satellite Maps
  • Weather Map
  • News
  • Weather Widgets
  • user-avatar
    Login

    Hourly Weather Podlewkowie

    Today, 20 May, Monday

    Time Temperature Precipitation Wind Pressure Humidity
    00:00 +17°C° 0 mm 4 mps 745 mmHg 92%
    01:00 +17°C° 0 mm 4 mps 745 mmHg 93%
    02:00 +17°C° 0 mm 4 mps 745 mmHg 92%
    03:00 +17°C° 0.1 mm 4 mps 745 mmHg 92%
    04:00 +15°C° 0.1 mm 4 mps 744 mmHg 93%
    05:00 +15°C° 0.1 mm 5 mps 744 mmHg 93%
    06:00 +17°C° 0 mm 5 mps 744 mmHg 90%
    07:00 +19°C° 0 mm 6 mps 744 mmHg 86%
    08:00 +20°C° 0 mm 6 mps 744 mmHg 83%
    09:00 +21°C° 0 mm 7 mps 744 mmHg 81%
    10:00 +21°C° 0 mm 7 mps 744 mmHg 78%
    11:00 +22°C° 0 mm 7 mps 744 mmHg 75%
    12:00 +23°C° 0.2 mm 7 mps 744 mmHg 73%
    13:00 +24°C° 0.2 mm 7 mps 744 mmHg 70%
    14:00 +26°C° 0.2 mm 7 mps 744 mmHg 68%
    15:00 +24°C° 0.1 mm 7 mps 744 mmHg 68%
    16:00 +24°C° 0.1 mm 7 mps 744 mmHg 69%
    17:00 +24°C° 0.1 mm 7 mps 744 mmHg 69%
    18:00 +22°C° 0.9 mm 6 mps 743 mmHg 75%
    19:00 +21°C° 0.9 mm 5 mps 743 mmHg 81%
    20:00 +20°C° 0.9 mm 4 mps 743 mmHg 88%
    21:00 +19°C° 0.1 mm 4 mps 743 mmHg 89%
    22:00 +19°C° 0.1 mm 4 mps 743 mmHg 90%
    23:00 +18°C° 0.1 mm 4 mps 743 mmHg 91%

    Tomorrow, 21 May, Tuesday

    Time Temperature Precipitation Wind Pressure Humidity
    00:00 +18°C° 0 mm 4 mps 743 mmHg 92%
    01:00 +18°C° 0 mm 4 mps 743 mmHg 94%
    02:00 +17°C° 0 mm 4 mps 743 mmHg 95%
    03:00 +17°C° 0 mm 4 mps 742 mmHg 95%
    04:00 +17°C° 0 mm 4 mps 742 mmHg 96%
    05:00 +17°C° 0 mm 4 mps 742 mmHg 96%
    06:00 +17°C° 0.1 mm 5 mps 742 mmHg 95%
    07:00 +17°C° 0.1 mm 5 mps 742 mmHg 93%
    08:00 +19°C° 0.1 mm 5 mps 742 mmHg 92%
    09:00 +19°C° 0 mm 5 mps 742 mmHg 89%
    10:00 +19°C° 0 mm 5 mps 742 mmHg 87%
    11:00 +19°C° 0 mm 5 mps 742 mmHg 84%
    12:00 +19°C° 0.1 mm 6 mps 742 mmHg 83%
    13:00 +19°C° 0.1 mm 6 mps 742 mmHg 82%
    14:00 +20°C° 0.1 mm 6 mps 742 mmHg 81%
    15:00 +20°C° 0.1 mm 6 mps 742 mmHg 77%
    16:00 +21°C° 0.1 mm 6 mps 742 mmHg 73%
    17:00 +21°C° 0.1 mm 6 mps 741 mmHg 69%
    18:00 +20°C° 0 mm 5 mps 741 mmHg 74%
    19:00 +19°C° 0 mm 5 mps 741 mmHg 78%
    20:00 +17°C° 0 mm 4 mps 741 mmHg 83%
    21:00 +15°C° 0 mm 4 mps 742 mmHg 86%
    22:00 +14°C° 0 mm 3 mps 742 mmHg 88%
    23:00 +13°C° 0 mm 3 mps 742 mmHg 90%

    Day after tomorrow, 22 May, Wednesday

    Time Temperature Precipitation Wind Pressure Humidity
    00:00 +12°C° 0 mm 3 mps 742 mmHg 91%
    01:00 +12°C° 0 mm 3 mps 742 mmHg 92%
    02:00 +11°C° 0 mm 3 mps 743 mmHg 93%
    03:00 +12°C° 0 mm 3 mps 743 mmHg 93%
    04:00 +12°C° 0 mm 3 mps 743 mmHg 93%
    05:00 +12°C° 0 mm 3 mps 743 mmHg 93%
    06:00 +13°C° 0 mm 3 mps 743 mmHg 87%
    07:00 +14°C° 0 mm 3 mps 743 mmHg 82%
    08:00 +17°C° 0 mm 3 mps 743 mmHg 77%
    09:00 +18°C° 0 mm 3 mps 743 mmHg 71%
    10:00 +20°C° 0 mm 3 mps 743 mmHg 66%
    11:00 +21°C° 0 mm 4 mps 743 mmHg 60%
    12:00 +22°C° 0.1 mm 4 mps 743 mmHg 59%
    13:00 +22°C° 0.1 mm 4 mps 743 mmHg 58%
    14:00 +23°C° 0.1 mm 4 mps 743 mmHg 58%
    15:00 +22°C° 0.4 mm 4 mps 743 mmHg 62%
    16:00 +22°C° 0.4 mm 4 mps 743 mmHg 66%
    17:00 +21°C° 0.4 mm 4 mps 743 mmHg 70%
    18:00 +20°C° 0 mm 3 mps 743 mmHg 76%
    19:00 +19°C° 0 mm 3 mps 742 mmHg 81%
    20:00 +18°C° 0 mm 2 mps 742 mmHg 86%
    21:00 +17°C° 0 mm 2 mps 743 mmHg 89%
    22:00 +16°C° 0 mm 2 mps 743 mmHg 92%
    23:00 +15°C° 0 mm 2 mps 743 mmHg 95%

    23 May, Thursday

    Time Temperature Precipitation Wind Pressure Humidity
    00:00 +15°C° 0 mm 2 mps 743 mmHg 95%
    01:00 +14°C° 0 mm 2 mps 743 mmHg 96%
    02:00 +14°C° 0 mm 2 mps 743 mmHg 96%
    03:00 +13°C° 0 mm 2 mps 743 mmHg 97%
    04:00 +13°C° 0 mm 2 mps 743 mmHg 97%
    05:00 +13°C° 0 mm 1 mps 743 mmHg 97%
    06:00 +14°C° 0 mm 2 mps 743 mmHg 92%
    07:00 +16°C° 0 mm 2 mps 743 mmHg 87%
    08:00 +17°C° 0 mm 2 mps 743 mmHg 82%
    09:00 +18°C° 0.1 mm 2 mps 743 mmHg 80%
    10:00 +18°C° 0.1 mm 2 mps 744 mmHg 78%
    11:00 +19°C° 0.1 mm 2 mps 744 mmHg 76%
    12:00 +20°C° 0.1 mm 2 mps 744 mmHg 71%
    13:00 +21°C° 0.1 mm 3 mps 744 mmHg 67%
    14:00 +22°C° 0.1 mm 3 mps 744 mmHg 62%
    15:00 +21°C° 0.1 mm 3 mps 743 mmHg 64%
    16:00 +21°C° 0.1 mm 2 mps 743 mmHg 67%
    17:00 +20°C° 0.1 mm 2 mps 743 mmHg 70%
    18:00 +19°C° 0.6 mm 3 mps 744 mmHg 77%
    19:00 +18°C° 0.6 mm 3 mps 744 mmHg 84%
    20:00 +15°C° 0.6 mm 4 mps 744 mmHg 92%
    21:00 +14°C° 0.1 mm 4 mps 744 mmHg 93%
    22:00 +14°C° 0.1 mm 4 mps 744 mmHg 94%
    23:00 +13°C° 0.1 mm 4 mps 744 mmHg 95%

    24 May, Friday

    Time Temperature Precipitation Wind Pressure Humidity
    00:00 +12°C° 0.1 mm 4 mps 745 mmHg 94%
    01:00 +11°C° 0.1 mm 4 mps 745 mmHg 94%
    02:00 +11°C° 0.1 mm 4 mps 745 mmHg 93%
    03:00 +10°C° 0.1 mm 4 mps 745 mmHg 93%
    04:00 +10°C° 0.1 mm 3 mps 745 mmHg 93%
    05:00 +9°C° 0.1 mm 3 mps 745 mmHg 92%
    06:00 +10°C° 0.1 mm 3 mps 745 mmHg 91%
    07:00 +10°C° 0.1 mm 3 mps 745 mmHg 90%
    08:00 +10°C° 0.1 mm 3 mps 745 mmHg 89%
    09:00 +11°C° 0 mm 3 mps 745 mmHg 87%
    10:00 +12°C° 0 mm 3 mps 745 mmHg 84%
    11:00 +13°C° 0 mm 3 mps 745 mmHg 82%
    12:00 +13°C° 0.1 mm 3 mps 744 mmHg 82%
    13:00 +14°C° 0.1 mm 2 mps 744 mmHg 81%
    14:00 +14°C° 0.1 mm 2 mps 744 mmHg 81%
    15:00 +16°C° 0 mm 2 mps 744 mmHg 77%
    16:00 +17°C° 0 mm 2 mps 743 mmHg 73%
    17:00 +18°C° 0 mm 2 mps 743 mmHg 69%
    18:00 +17°C° 0 mm 2 mps 743 mmHg 73%
    19:00 +16°C° 0 mm 2 mps 743 mmHg 76%
    20:00 +16°C° 0 mm 2 mps 743 mmHg 80%
    21:00 +15°C° 0 mm 2 mps 743 mmHg 83%
    22:00 +14°C° 0 mm 2 mps 743 mmHg 86%
    23:00 +12°C° 0 mm 3 mps 743 mmHg 89%

    25 May, Saturday

    Time Temperature Precipitation Wind Pressure Humidity
    00:00 +11°C° 0 mm 3 mps 743 mmHg 90%
    01:00 +11°C° 0 mm 3 mps 743 mmHg 91%
    02:00 +10°C° 0 mm 3 mps 742 mmHg 91%
    03:00 +10°C° 0 mm 3 mps 742 mmHg 92%
    04:00 +9°C° 0 mm 2 mps 742 mmHg 92%
    05:00 +9°C° 0 mm 2 mps 742 mmHg 92%
    06:00 +12°C° 0 mm 2 mps 743 mmHg 85%
    07:00 +13°C° 0 mm 3 mps 743 mmHg 77%
    08:00 +16°C° 0 mm 3 mps 743 mmHg 70%
    09:00 +17°C° 0 mm 3 mps 743 mmHg 65%
    10:00 +19°C° 0 mm 3 mps 743 mmHg 61%
    11:00 +20°C° 0 mm 3 mps 743 mmHg 57%
    12:00 +20°C° 0.1 mm 3 mps 742 mmHg 58%
    13:00 +21°C° 0.1 mm 4 mps 742 mmHg 59%
    14:00 +21°C° 0.1 mm 4 mps 742 mmHg 59%
    15:00 +21°C° 0.1 mm 4 mps 742 mmHg 61%
    16:00 +21°C° 0.1 mm 3 mps 742 mmHg 62%
    17:00 +21°C° 0.1 mm 3 mps 742 mmHg 63%
    18:00 +19°C° 0 mm 3 mps 742 mmHg 69%
    19:00 +18°C° 0 mm 2 mps 742 mmHg 75%
    20:00 +17°C° 0 mm 2 mps 742 mmHg 80%
    21:00 +16°C° 0 mm 2 mps 742 mmHg 82%
    22:00 +15°C° 0 mm 2 mps 743 mmHg 85%
    23:00 +14°C° 0 mm 2 mps 743 mmHg 87%
    Show more